Location: Zlin
(49.2330°N, 17.6670°E)
Time: 00:21:46
(UTC+01:00)

ISS - Pass Details

Date: 24 February 2019
Orbit: 406 x 411 km, 51.6° (Epoch: 20 March)

Event Time Altitude Azimuth Distance (km) Brightness Sun altitude
Rises 05:37:18 0° 206° (SSW) 2,314 -0.2 -11.4°
Reaches altitude 10° 05:39:46 10° 187° (S) 1,459 -1.1 -11.0°
Maximum altitude 05:42:08 19° 140° (SE) 1,048 -1.2 -10.6°
Drops below altitude 10° 05:44:32 10° 93° (E) 1,467 0.7 -10.2°
Sets 05:47:01 0° 75° (ENE) 2,333 1.6 -9.8°
